Location: Newark
(52.4787°S, 179.0532°W)
Time: 10:55:01
(UTC+00:00)

Transit 2A Rocket - Pass Details

Date: 23 November 2019
Orbit: 594 x 909 km, 66.7° (Epoch: 09 December)

Event Time Altitude Azimuth Distance (km) Brightness Sun altitude
Rises 02:28:41 0° 228° (SW) 3,554 8.6 44.6°
Reaches altitude 10° 02:31:38 10° 216° (SW) 2,625 8.0 44.2°
Maximum altitude 02:36:49 27° 158° (SSE) 1,682 6.7 43.5°
Drops below altitude 10° 02:41:56 10° 101° (E) 2,584 7.4 42.8°
Sets 02:44:48 0° 89° (E) 3,489 8.0 42.4°
